[[{"header":{"parameterUnit":"m.s-1","parameterCategory":2,"la1":30.2992,"la2":30.254,"lo1":-89.0895,"lo2":-89.0443,"dy":0.0025,"dx":0.0025,"nx":19,"ny":19,"refTime":"2026-05-04T03:00:00:Z","depth":"0","parameterNumber":2,"parameterNumberName":"U-component_of_CURRENTS"},"data":[0,0,0,-0.1826,-0.183,-0.2062,-0.2064,-0.2129,-0.2128,0,0,0,0,0,0,0,0,0,0,0,-0.1718,-0.1718,-0.1826,-0.183,-0.2062,-0.2064,-0.2129,-0.2128,0,0,0,0,0,0,0,0,0,0,0,-0.1718,-0.1718,-0.1717,-0.1831,-0.2062,-0.2064,-0.2129,-0.2023,0,0,0,0,0,0,0,0,0,0,-0.1831,-0.1779,-0.1718,-0.1717,-0.1831,-0.2061,-0.2064,-0.2021,-0.2029,-0.1942,0,-0.1929,0,-0.2012,-0.2122,-0.2122,0,0,0,-0.1879,-0.1772,-0.1795,-0.1717,-0.1833,-0.2061,-0.1971,-0.2028,-0.2037,-0.1951,-0.1931,-0.1936,-0.2013,-0.2122,-0.2121,-0.1968,-0.1967,0,0,-0.1866,-0.1808,-0.1789,-0.1799,-0.1823,-0.1963,-0.1978,-0.2037,-0.2032,-0.1931,-0.194,-0.2014,-0.2121,-0.2121,-0.1969,-0.1968,0,0,0,-0.1796,-0.1798,-0.1828,-0.1793,-0.1845,-0.1969,-0.1986,-0.2032,-0.2028,-0.1941,-0.2015,-0.2121,-0.212,-0.197,-0.1968,-0.1933,0,0,0,-0.1791,-0.1755,-0.182,-0.1797,-0.1843,-0.1981,-0.1978,-0.2024,-0.2036,-0.2015,-0.2121,-0.2119,-0.1971,-0.1969,-0.1937,-0.1885,0,0,0,-0.172,-0.1751,-0.1747,-0.1791,-0.187,-0.1983,-0.1991,-0.2032,-0.2076,-0.2122,-0.2119,-0.1972,-0.197,-0.194,-0.1891,-0.1709,0,0,0,-0.1698,-0.1677,-0.1744,-0.1746,-0.1867,-0.193,-0.1992,-0.2057,-0.209,-0.212,-0.1971,-0.1969,-0.1941,-0.1895,-0.1715,-0.1456,-0.1407,0,0,-0.1663,-0.1672,-0.1674,-0.174,-0.1785,-0.1906,-0.1932,-0.2,-0.2015,-0.1946,-0.1946,-0.1936,-0.1891,-0.171,-0.1309,-0.1264,0,0,0,-0.166,-0.1662,-0.1686,-0.1728,-0.1783,-0.1844,-0.1931,-0.1936,-0.1935,-0.2015,-0.1893,-0.1864,-0.1751,-0.1607,-0.1571,-0.1444,-0.1957,-0.1957,-0.1957,-0.1599,-0.1634,-0.1655,-0.1702,-0.1723,-0.1789,-0.1801,-0.1806,-0.1849,-0.1823,-0.1807,-0.1602,-0.145,-0.142,-0.1294,-0.1791,-0.1791,-0.1791,-0.1791,-0.16,-0.1615,-0.1645,-0.1682,-0.169,-0.17,-0.1676,-0.1697,-0.1598,-0.1711,-0.1603,-0.1542,-0.1377,-0.1258,-0.1788,-0.1788,-0.1789,-0.1789,-0.1789,-0.1619,-0.1612,-0.165,-0.1654,-0.1649,-0.1654,-0.1534,-0.1544,-0.1519,-0.1449,-0.1209,-0.1207,-0.1117,-0.1379,-0.1378,-0.1376,-0.1376,-0.1375,-0.1374,-0.1598,-0.1625,-0.1598,-0.1623,-0.1591,-0.1534,-0.1439,-0.1314,-0.1118,-0.1088,-0.1085,-0.0991,-0.1473,-0.1508,-0.1358,-0.1361,-0.1363,-0.1365,-0.1366,-0.1524,-0.155,-0.1493,-0.1461,-0.1382,-0.1196,-0.1154,-0.078,-0.0656,-0.0479,-0.0461,-0.0853,-0.0806,-0.0833,-0.0849,-0.0537,-0.0537,-0.0537,-0.0537,-0.1433,-0.146,-0.1333,-0.1249,-0.1124,-0.102,-0.0532,-0.0266,-0.0044,0.0061,-0.0054,-0.0121,-0.016,-0.0084,-0.0128,-0.0134,0.0353,0.0354,0.0354,-0.1297,-0.1295,-0.116,-0.1139,-0.1002,-0.0737,-0.0223,0.0164,0.0395,0.0389,0.0078,0.004,-0.0078,-0.015,-0.0062,-0.0133,-0.0156,0,0]},{"header":{"parameterUnit":"m.s-1","parameterCategory":2,"la1":30.2992,"la2":30.254,"lo1":-89.0895,"lo2":-89.0443,"dy":0.0025,"dx":0.0025,"nx":19,"ny":19,"refTime":"2026-05-04T03:00:00:Z","depth":"0","parameterNumber":3,"parameterNumberName":"V-component_of_CURRENTS"},"data":[0,0,0,-0.0654,-0.0654,-0.0582,-0.0581,-0.0271,-0.0268,0,0,0,0,0,0,0,0,0,0,0,-0.0663,-0.0663,-0.0654,-0.0653,-0.0582,-0.0581,-0.0272,-0.0268,0,0,0,0,0,0,0,0,0,0,0,-0.0663,-0.0663,-0.0663,-0.0653,-0.0582,-0.0581,-0.0273,-0.0373,0,0,0,0,0,0,0,0,0,0,-0.0466,-0.0529,-0.0663,-0.0663,-0.0653,-0.0582,-0.0581,-0.038,-0.0366,-0.0252,0,-0.0257,0,-0.027,-0.0246,-0.0244,0,0,0,-0.062,-0.0541,-0.0518,-0.0663,-0.0653,-0.0583,-0.0605,-0.0374,-0.0358,-0.0233,-0.0253,-0.0243,-0.0265,-0.0243,-0.0242,-0.0149,-0.015,0,0,-0.0624,-0.0641,-0.053,-0.051,-0.0649,-0.0607,-0.0603,-0.0367,-0.0353,-0.0252,-0.0237,-0.026,-0.0241,-0.0239,-0.0147,-0.0149,0,0,0,-0.0658,-0.0644,-0.0631,-0.052,-0.0534,-0.0606,-0.0601,-0.0363,-0.0359,-0.0234,-0.0256,-0.0239,-0.0235,-0.0146,-0.0148,-0.0205,0,0,0,-0.0659,-0.0666,-0.0633,-0.0641,-0.054,-0.0482,-0.0603,-0.0375,-0.0351,-0.0258,-0.0239,-0.0232,-0.0144,-0.0147,-0.02,-0.0132,0,0,0,-0.0664,-0.0667,-0.0664,-0.0642,-0.0629,-0.0487,-0.0469,-0.0371,-0.0363,-0.0244,-0.0231,-0.0143,-0.0146,-0.0195,-0.0127,0.0107,0,0,0,-0.0674,-0.0715,-0.0664,-0.0723,-0.063,-0.0654,-0.0471,-0.0459,-0.0384,-0.0237,-0.0144,-0.0148,-0.0194,-0.0125,0.0105,0.0374,0.0404,0,0,-0.0743,-0.0723,-0.0766,-0.072,-0.0802,-0.066,-0.0667,-0.0488,-0.039,-0.0195,-0.0194,-0.0202,-0.0127,0.0107,0.0164,0.0203,0,0,0,-0.0801,-0.0846,-0.0862,-0.0892,-0.0862,-0.0762,-0.0649,-0.055,-0.0404,-0.0367,-0.026,-0.021,-0.0058,0.0094,0.0122,0.0153,-0.0164,-0.0164,-0.0164,-0.091,-0.0928,-0.1011,-0.1021,-0.0984,-0.0843,-0.0715,-0.0553,-0.0493,-0.0471,-0.0305,-0.0226,-0.008,-0.0052,-0.0032,-0.0408,-0.0409,-0.0409,-0.0409,-0.1079,-0.1126,-0.1108,-0.1194,-0.1052,-0.0993,-0.0711,-0.0616,-0.0338,-0.0404,-0.0253,-0.0038,-0.0022,-0.0013,-0.0414,-0.0413,-0.0412,-0.0412,-0.0412,-0.1199,-0.1201,-0.1272,-0.1275,-0.1159,-0.0972,-0.0596,-0.0456,-0.0327,-0.0206,0.0131,0.0135,0.0213,-0.0099,-0.0098,-0.0096,-0.0095,-0.0094,-0.0094,-0.1231,-0.1298,-0.1304,-0.1292,-0.1168,-0.0875,-0.0479,-0.0201,0.0108,0.0176,0.018,0.0231,-0.0125,-0.0057,-0.0075,-0.0078,-0.0081,-0.0082,-0.0084,-0.1281,-0.1271,-0.1264,-0.1184,-0.0845,-0.0409,-0.0128,0.0479,0.0704,0.091,0.0713,0.0446,0.0566,0.0544,0.0628,0.0791,0.0791,0.0791,0.0791,-0.1216,-0.1246,-0.1103,-0.0876,-0.0496,-0.0125,0.0619,0.1064,0.1252,0.1234,0.1078,0.0961,0.0924,0.1055,0.1021,0.1109,0.1391,0.1391,0.1392,-0.1128,-0.1112,-0.0929,-0.0746,-0.0298,0.0257,0.0924,0.1482,0.1568,0.1403,0.1065,0.104,0.0835,0.0776,0.0945,0.0895,0.1027,0,0]}],[{"header":{"parameterUnit":"m.s-1","parameterCategory":2,"la1":30.2992,"la2":30.254,"lo1":-89.0895,"lo2":-89.0443,"dy":0.0025,"dx":0.0025,"nx":19,"ny":19,"refTime":"2026-05-04T03:00:00:Z","depth":"2","parameterNumber":2,"parameterNumberName":"U-component_of_CURRENTS"},"data":[0,0,0,-0.1595,-0.1596,-0.1629,-0.1629,-0.1585,-0.1585,0,0,0,0,0,0,0,0,0,0,0,-0.1558,-0.1558,-0.1595,-0.1596,-0.1629,-0.1629,-0.1585,-0.1585,0,0,0,0,0,0,0,0,0,0,0,-0.1558,-0.1558,-0.1558,-0.1596,-0.1629,-0.1629,-0.1585,-0.1579,0,0,0,0,0,0,0,0,0,0,-0.1556,-0.1536,-0.1558,-0.1558,-0.1597,-0.1629,-0.1629,-0.1579,-0.1579,-0.155,0,-0.1547,0,-0.158,-0.1581,-0.1581,0,0,0,-0.1583,-0.1537,-0.1555,-0.1558,-0.1597,-0.1629,-0.161,-0.158,-0.1579,-0.155,-0.1547,-0.1547,-0.1579,-0.1581,-0.158,-0.1475,-0.1474,0,0,-0.1581,-0.1555,-0.1555,-0.1554,-0.1594,-0.1609,-0.1612,-0.158,-0.1567,-0.1547,-0.1547,-0.1579,-0.158,-0.158,-0.1476,-0.1475,0,0,0,-0.1585,-0.1554,-0.1574,-0.1555,-0.1576,-0.1611,-0.1613,-0.1568,-0.1577,-0.1547,-0.1578,-0.158,-0.1579,-0.1476,-0.1475,-0.1548,0,0,0,-0.1583,-0.1558,-0.1573,-0.1557,-0.1577,-0.1585,-0.1601,-0.1578,-0.1578,-0.1578,-0.158,-0.1579,-0.1477,-0.1476,-0.1548,-0.1469,0,0,0,-0.1559,-0.1556,-0.1558,-0.1555,-0.1581,-0.1587,-0.1594,-0.1579,-0.1597,-0.1581,-0.1579,-0.1478,-0.1476,-0.1548,-0.1471,-0.1402,0,0,0,-0.1534,-0.1514,-0.1556,-0.1535,-0.158,-0.1561,-0.1595,-0.1568,-0.1546,-0.158,-0.1477,-0.1475,-0.1548,-0.1473,-0.1404,-0.1246,-0.1222,0,0,-0.1496,-0.1508,-0.1496,-0.1536,-0.1516,-0.1557,-0.1547,-0.1538,-0.1511,-0.1481,-0.1479,-0.1548,-0.1471,-0.1402,-0.1143,-0.1122,0,0,0,-0.1476,-0.1464,-0.1459,-0.1465,-0.1472,-0.1499,-0.1513,-0.1519,-0.1507,-0.1496,-0.149,-0.1436,-0.1393,-0.1301,-0.1284,-0.1467,-0.1467,-0.1467,-0.1467,-0.1399,-0.1419,-0.1397,-0.1423,-0.1415,-0.1452,-0.1452,-0.1457,-0.1478,-0.1475,-0.146,-0.1388,-0.1294,-0.1278,-0.1473,-0.1474,-0.1474,-0.1474,-0.1474,-0.1347,-0.1335,-0.1366,-0.1355,-0.1396,-0.1402,-0.1422,-0.1451,-0.1406,-0.145,-0.141,-0.1334,-0.1263,-0.1479,-0.1478,-0.1477,-0.1477,-0.1476,-0.1476,-0.129,-0.129,-0.1305,-0.1314,-0.133,-0.1372,-0.1319,-0.134,-0.1374,-0.1347,-0.1198,-0.1195,-0.1392,-0.1346,-0.1346,-0.1345,-0.1344,-0.1344,-0.1344,-0.1232,-0.1248,-0.123,-0.1254,-0.125,-0.1232,-0.1224,-0.119,-0.114,-0.1144,-0.1144,-0.1341,-0.1345,-0.1377,-0.1334,-0.1336,-0.1337,-0.1338,-0.1339,-0.114,-0.1161,-0.1125,-0.1111,-0.1082,-0.0986,-0.101,-0.0917,-0.0895,-0.085,-0.1024,-0.1035,-0.0958,-0.097,-0.0989,-0.0847,-0.0847,-0.0847,-0.0846,-0.1076,-0.1086,-0.1004,-0.0938,-0.0878,-0.0842,-0.0669,-0.0602,-0.0635,-0.0606,-0.0617,-0.0667,-0.0691,-0.0603,-0.0623,-0.0637,-0.0403,-0.0402,-0.0402,-0.1013,-0.1002,-0.09,-0.0846,-0.0766,-0.067,-0.0469,-0.0281,-0.0253,-0.039,-0.0599,-0.0805,-0.0913,-0.0937,-0.0832,-0.0853,-0.0886,0,0]},{"header":{"parameterUnit":"m.s-1","parameterCategory":2,"la1":30.2992,"la2":30.254,"lo1":-89.0895,"lo2":-89.0443,"dy":0.0025,"dx":0.0025,"nx":19,"ny":19,"refTime":"2026-05-04T03:00:00:Z","depth":"2","parameterNumber":3,"parameterNumberName":"V-component_of_CURRENTS"},"data":[0,0,0,-0.0632,-0.0631,-0.0563,-0.0563,-0.0362,-0.036,0,0,0,0,0,0,0,0,0,0,0,-0.0649,-0.0649,-0.0632,-0.0631,-0.0563,-0.0563,-0.0363,-0.036,0,0,0,0,0,0,0,0,0,0,0,-0.0649,-0.0649,-0.0648,-0.0631,-0.0564,-0.0563,-0.0363,-0.0437,0,0,0,0,0,0,0,0,0,0,-0.0515,-0.0559,-0.0649,-0.0648,-0.0631,-0.0564,-0.0563,-0.0442,-0.0432,-0.0368,0,-0.037,0,-0.037,-0.0347,-0.0346,0,0,0,-0.0609,-0.0568,-0.0549,-0.0648,-0.063,-0.0564,-0.0588,-0.0437,-0.0427,-0.0355,-0.0367,-0.036,-0.0366,-0.0345,-0.0344,-0.0195,-0.0195,0,0,-0.0612,-0.0628,-0.0557,-0.0544,-0.0626,-0.059,-0.0586,-0.0432,-0.0423,-0.0366,-0.0356,-0.0363,-0.0344,-0.0342,-0.0195,-0.0195,0,0,0,-0.0638,-0.063,-0.0618,-0.0551,-0.0553,-0.0589,-0.0584,-0.043,-0.0427,-0.0354,-0.0361,-0.0343,-0.034,-0.0195,-0.0195,-0.0318,0,0,0,-0.0639,-0.0647,-0.062,-0.0627,-0.0557,-0.0508,-0.0585,-0.0437,-0.042,-0.0362,-0.0343,-0.0338,-0.0196,-0.0195,-0.0314,-0.0305,0,0,0,-0.0649,-0.0648,-0.0645,-0.0628,-0.0611,-0.0511,-0.0498,-0.0434,-0.0424,-0.0346,-0.0337,-0.0196,-0.0195,-0.0312,-0.0301,-0.0245,0,0,0,-0.0659,-0.067,-0.0646,-0.0661,-0.0612,-0.0572,-0.05,-0.0455,-0.0397,-0.0342,-0.0196,-0.0195,-0.0311,-0.0299,-0.0245,-0.0238,-0.0241,0,0,-0.0682,-0.0673,-0.0685,-0.0662,-0.0638,-0.0579,-0.0556,-0.0455,-0.0366,-0.0234,-0.0231,-0.0316,-0.0301,-0.0245,-0.0228,-0.0232,0,0,0,-0.0699,-0.0688,-0.0679,-0.0663,-0.0633,-0.0595,-0.0513,-0.0465,-0.037,-0.0335,-0.0277,-0.0262,-0.0224,-0.0218,-0.022,-0.0195,-0.0195,-0.0195,-0.0195,-0.0699,-0.0696,-0.0698,-0.0677,-0.0654,-0.0595,-0.0551,-0.0459,-0.04,-0.0379,-0.0338,-0.0336,-0.0335,-0.0335,-0.034,-0.034,-0.0341,-0.0341,-0.0341,-0.0704,-0.0713,-0.0704,-0.0705,-0.0683,-0.0667,-0.057,-0.0534,-0.0413,-0.0393,-0.0352,-0.0316,-0.0345,-0.035,-0.0349,-0.0347,-0.0346,-0.0346,-0.0345,-0.0685,-0.0701,-0.071,-0.0735,-0.0741,-0.0715,-0.0663,-0.0576,-0.047,-0.0439,-0.0351,-0.0348,-0.0368,-0.0417,-0.0417,-0.0416,-0.0416,-0.0416,-0.0416,-0.0688,-0.0699,-0.0733,-0.0758,-0.079,-0.0778,-0.0694,-0.0615,-0.0483,-0.041,-0.041,-0.0358,-0.0355,-0.0366,-0.0412,-0.0413,-0.0413,-0.0414,-0.0414,-0.0694,-0.0718,-0.0757,-0.0788,-0.0833,-0.0801,-0.0735,-0.0593,-0.0488,-0.0409,-0.037,-0.0372,-0.0298,-0.0295,-0.03,-0.0326,-0.0326,-0.0326,-0.0326,-0.0722,-0.0728,-0.079,-0.0825,-0.0846,-0.0798,-0.0697,-0.057,-0.0432,-0.0353,-0.0352,-0.0392,-0.0394,-0.0325,-0.0322,-0.0328,-0.036,-0.036,-0.0361,-0.0763,-0.0767,-0.081,-0.0834,-0.0854,-0.0793,-0.0665,-0.0462,-0.0304,-0.0363,-0.0374,-0.0325,-0.0383,-0.0388,-0.0278,-0.0274,-0.0281,0,0]}],[{"header":{"parameterUnit":"m.s-1","parameterCategory":2,"la1":30.2992,"la2":30.254,"lo1":-89.0895,"lo2":-89.0443,"dy":0.0025,"dx":0.0025,"nx":19,"ny":19,"refTime":"2026-05-04T03:00:00:Z","depth":"4","parameterNumber":2,"parameterNumberName":"U-component_of_CURRENTS"},"data":[0,0,0,-0.1177,-0.1178,-0.1214,-0.1214,-0.1146,-0.1145,0,0,0,0,0,0,0,0,0,0,0,-0.1154,-0.1155,-0.1177,-0.1178,-0.1214,-0.1214,-0.1146,-0.1145,0,0,0,0,0,0,0,0,0,0,0,-0.1154,-0.1155,-0.1156,-0.1179,-0.1214,-0.1214,-0.1146,-0.1141,0,0,0,0,0,0,0,0,0,0,-0.1118,-0.1113,-0.1155,-0.1156,-0.1179,-0.1214,-0.1213,-0.1142,-0.1141,-0.1106,0,-0.1129,0,-0.115,-0.1141,-0.114,0,0,0,-0.1151,-0.1114,-0.1141,-0.1156,-0.118,-0.1214,-0.119,-0.1142,-0.1141,-0.1105,-0.1128,-0.1127,-0.1149,-0.114,-0.114,-0.1087,-0.1087,0,0,-0.1149,-0.1136,-0.1142,-0.1141,-0.1209,-0.1189,-0.1192,-0.1143,-0.1137,-0.1128,-0.1126,-0.1148,-0.114,-0.1139,-0.1087,-0.1087,0,0,0,-0.1162,-0.1135,-0.1164,-0.1143,-0.1167,-0.1191,-0.1193,-0.1139,-0.1155,-0.1125,-0.1147,-0.1139,-0.1139,-0.1087,-0.1087,-0.1072,0,0,0,-0.1159,-0.1145,-0.1164,-0.1153,-0.1169,-0.1167,-0.119,-0.1157,-0.1154,-0.1147,-0.1139,-0.1138,-0.1087,-0.1087,-0.1073,-0.106,0,0,0,-0.1149,-0.1143,-0.1158,-0.1153,-0.1185,-0.117,-0.1181,-0.1157,-0.1167,-0.114,-0.1138,-0.1087,-0.1087,-0.1073,-0.1061,-0.0986,0,0,0,-0.1119,-0.1116,-0.1158,-0.1149,-0.1185,-0.1177,-0.1182,-0.1167,-0.1144,-0.1139,-0.1087,-0.1087,-0.1073,-0.1062,-0.0988,-0.0872,0,0,0,-0.1091,-0.1112,-0.1104,-0.1143,-0.1131,-0.1169,-0.1142,-0.1126,-0.1129,-0.109,-0.109,-0.1072,-0.1061,-0.0987,-0.0864,0,0,0,0,-0.1078,-0.1077,-0.1076,-0.1088,-0.1102,-0.1111,-0.1115,-0.1118,-0.1103,-0.1123,-0.1073,-0.1067,-0.1019,-0.0958,-0.1086,-0.1086,-0.1086,-0.1086,-0.1086,-0.1019,-0.1034,-0.1018,-0.1039,-0.1042,-0.1066,-0.1059,-0.1068,-0.1075,-0.1078,-0.1055,-0.0991,-0.0928,-0.106,-0.106,-0.106,-0.106,-0.1059,-0.1059,-0.0972,-0.0963,-0.0989,-0.0984,-0.1012,-0.1007,-0.1017,-0.1032,-0.0998,-0.1042,-0.0996,-0.095,-0.1058,-0.1058,-0.1059,-0.1059,-0.1059,-0.1059,-0.1059,-0.0928,-0.0927,-0.0942,-0.0953,-0.0962,-0.0988,-0.0947,-0.0974,-0.0974,-0.0946,-0.0839,-0.0957,-0.0954,-0.0912,-0.0911,-0.0911,-0.0911,-0.091,-0.091,-0.0882,-0.0895,-0.0892,-0.0915,-0.0916,-0.0913,-0.0909,-0.0863,-0.0869,-0.0797,-0.0928,-0.094,-0.0945,-0.0944,-0.0904,-0.0905,-0.0906,-0.0907,-0.0907,-0.0818,-0.0838,-0.0824,-0.0824,-0.0806,-0.0786,-0.0808,-0.0702,-0.0626,-0.0563,-0.0694,-0.0706,-0.0686,-0.0696,-0.0686,-0.0568,-0.0567,-0.0565,0,-0.0773,-0.0783,-0.0738,-0.0699,-0.0646,-0.0682,-0.0552,-0.0519,-0.0515,-0.0504,-0.0624,-0.0776,-0.0783,-0.0769,-0.0775,-0.0766,0,0,0,-0.0728,-0.0725,-0.0656,-0.062,-0.055,-0.0488,-0.0504,-0.0447,-0.0547,-0.0437,-0.0522,-0.0533,-0.0765,-0.0887,-0.0884,-0.089,-0.0887,0,0]},{"header":{"parameterUnit":"m.s-1","parameterCategory":2,"la1":30.2992,"la2":30.254,"lo1":-89.0895,"lo2":-89.0443,"dy":0.0025,"dx":0.0025,"nx":19,"ny":19,"refTime":"2026-05-04T03:00:00:Z","depth":"4","parameterNumber":3,"parameterNumberName":"V-component_of_CURRENTS"},"data":[0,0,0,-0.0438,-0.0438,-0.0395,-0.0395,-0.0255,-0.0254,0,0,0,0,0,0,0,0,0,0,0,-0.0452,-0.0452,-0.0438,-0.0438,-0.0395,-0.0395,-0.0255,-0.0254,0,0,0,0,0,0,0,0,0,0,0,-0.0452,-0.0452,-0.0452,-0.0438,-0.0395,-0.0395,-0.0256,-0.0304,0,0,0,0,0,0,0,0,0,0,-0.0355,-0.0386,-0.0452,-0.0452,-0.0438,-0.0396,-0.0395,-0.0307,-0.0301,-0.0256,0,-0.0265,0,-0.0263,-0.0244,-0.0244,0,0,0,-0.0419,-0.0392,-0.0384,-0.0452,-0.0438,-0.0396,-0.0409,-0.0305,-0.0297,-0.0248,-0.0263,-0.0258,-0.0261,-0.0243,-0.0243,-0.0078,-0.0077,0,0,-0.0421,-0.0433,-0.039,-0.0381,-0.0444,-0.0411,-0.0408,-0.0301,-0.0296,-0.0262,-0.0255,-0.0258,-0.0242,-0.0241,-0.0078,-0.0077,0,0,0,-0.0441,-0.0434,-0.0431,-0.0386,-0.0389,-0.041,-0.0407,-0.0301,-0.0302,-0.0254,-0.0257,-0.0242,-0.024,-0.0079,-0.0078,-0.0144,0,0,0,-0.0441,-0.0448,-0.0432,-0.0437,-0.0392,-0.0356,-0.0409,-0.0309,-0.0297,-0.0257,-0.0242,-0.0239,-0.008,-0.0078,-0.0144,-0.0215,0,0,0,-0.0451,-0.0448,-0.045,-0.0438,-0.0429,-0.0358,-0.0352,-0.0307,-0.0299,-0.0244,-0.0238,-0.008,-0.0079,-0.0144,-0.0213,-0.0249,0,0,0,-0.0453,-0.0444,-0.0451,-0.0433,-0.043,-0.0365,-0.0353,-0.0303,-0.0257,-0.0241,-0.008,-0.0078,-0.0144,-0.0212,-0.0247,-0.0236,0,0,0,-0.0437,-0.0443,-0.0429,-0.0434,-0.0373,-0.0368,-0.0301,-0.0253,-0.021,-0.0108,-0.0104,-0.0144,-0.0213,-0.0249,-0.0129,0,0,0,0,-0.042,-0.0402,-0.0384,-0.0358,-0.0326,-0.031,-0.0246,-0.0227,-0.0164,-0.0179,-0.0089,-0.013,-0.0151,-0.0134,-0.0069,-0.007,-0.007,-0.007,-0.007,-0.0384,-0.0369,-0.0335,-0.0304,-0.028,-0.0247,-0.0242,-0.0197,-0.0131,-0.0115,-0.0141,-0.0161,-0.0137,-0.0068,-0.0068,-0.0068,-0.0068,-0.0069,-0.0069,-0.0338,-0.0331,-0.0317,-0.0286,-0.0287,-0.0252,-0.0233,-0.0221,-0.0197,-0.014,-0.0156,-0.0151,-0.0074,-0.0073,-0.0072,-0.0071,-0.0071,-0.0071,-0.007,-0.0312,-0.0319,-0.0305,-0.0312,-0.0327,-0.0319,-0.0361,-0.0334,-0.0281,-0.0302,-0.026,-0.0212,-0.0258,-0.0292,-0.0292,-0.0293,-0.0293,-0.0293,-0.0294,-0.0327,-0.0311,-0.0346,-0.0358,-0.04,-0.0445,-0.0454,-0.045,-0.0405,-0.0355,-0.0323,-0.0236,-0.0229,-0.0269,-0.0301,-0.0299,-0.0298,-0.0298,-0.0297,-0.0335,-0.0365,-0.0406,-0.0451,-0.053,-0.0547,-0.0557,-0.0514,-0.0517,-0.0488,-0.0372,-0.0366,-0.0355,-0.0345,-0.0389,-0.0458,-0.0458,-0.0458,0,-0.0386,-0.0389,-0.0479,-0.0552,-0.0611,-0.0608,-0.0593,-0.057,-0.0511,-0.0493,-0.0521,-0.0391,-0.0385,-0.0371,-0.0363,-0.0413,0,0,0,-0.044,-0.0452,-0.0528,-0.0578,-0.0638,-0.06,-0.0581,-0.0556,-0.0516,-0.0503,-0.046,-0.046,-0.0382,-0.0321,-0.0291,-0.0282,-0.0345,0,0]}]]